Location: Vale
(35.4830°N, 81.3830°W)
Time: 04:48:52
(UTC-05:00)

Amateur Radio Satellites - All Passes

Search period start: 20 January 2017 04:18
Search period end: 21 January 2017 04:18
Location: Vale, 35.4830°N, 81.3830°W

Satellite Date Start Highest point End Downlink Frequencies (MHz)
Time Altitude Azimuth
M-CUBED/EXP-1 PRIME 20 Jan 04:20:27 04:24:12 26° 258° (WSW) 04:27:48 437.505
AIST 2 20 Jan 04:31:53 04:35:42 31° 55° (NE) 04:39:30 435.215
CUSAT 1 20 Jan 04:46:18 04:50:11 21° 294° (WNW) 04:54:49 437.405
Cosmos 2491 20 Jan 04:57:12 05:00:07 12° 298° (WNW) 05:03:04 435.465 / 435.565
CUBESAT XI-V 20 Jan 04:57:30 05:02:04 53° 260° (W) 05:06:41 437.345
KKS-1 20 Jan 04:57:46 05:01:13 22° 264° (W) 05:04:41 437.445
AUBIESAT-1 20 Jan 04:59:52 05:01:30 12° 261° (W) 05:03:06 437.475
ISS 20 Jan 05:04:15 05:07:13 32° 36° (NE) 05:10:10 145.825
BRITE-PL 20 Jan 05:07:05 05:11:48 51° 99° (E) 05:16:08 437.365/2234.400
GOMX 1 20 Jan 05:14:21 05:17:34 20° 94° (E) 05:20:40 467.674
RS-15 20 Jan 05:26:55 05:33:22 15° 10° (N) 05:39:47 29.354- 29.394
DANDE 20 Jan 05:32:42 05:35:28 19° 293° (WNW) 05:38:47 436.750
Cubesat XI-IV 20 Jan 05:36:40 05:39:50 16° 93° (E) 05:42:58 437.490
PHONESAT 2.4 20 Jan 05:45:46 05:47:52 30° 12° (NNE) 05:49:57 2401.200-2431.200
NOAA 15 20 Jan 05:46:40 05:50:40 21° 95° (E) 05:54:38 137.62
AO-7 20 Jan 05:54:05 06:00:24 25° 302° (WNW) 06:06:43 29.400- 29.500
STARS 20 Jan 05:54:23 05:55:55 12° 268° (W) 05:57:28 437.465
DOVE 4 20 Jan 05:55:36 05:58:45 21° 95° (E) 06:01:52 437.250
HORYU 2 20 Jan 06:00:13 06:04:41 87° 103° (ESE) 06:09:09 437.375
Cosmos 2499 20 Jan 06:07:35 06:13:09 24° 72° (ENE) 06:18:38 435.465 / 435.565
AIST 2 20 Jan 06:10:48 06:13:58 20° 250° (WSW) 06:17:06 435.215
O/OREOS (USA 219) 20 Jan 06:16:28 06:20:48 51° 106° (ESE) 06:25:08 437.305
CUTE-I 20 Jan 06:31:50 06:37:06 58° 101° (E) 06:42:22 437.470
STRAND 1 20 Jan 06:31:56 06:36:41 42° 72° (ENE) 06:41:29 437.568
ISS 20 Jan 06:41:06 06:43:32 20° 231° (SW) 06:45:58 145.825
BRITE-PL 20 Jan 06:47:16 06:49:41 14° 296° (WNW) 06:52:02 437.365/2234.400
GOMX 1 20 Jan 06:51:58 06:55:40 27° 290° (WNW) 06:59:14 467.674
GONETS M04 20 Jan 06:55:48 07:04:19 49° 78° (ENE) 07:12:48
LilacSat-2 20 Jan 06:59:08 07:02:50 45° 285° (WNW) 07:06:33 437.200
SO-50 20 Jan 07:06:09 07:09:42 21° 110° (ESE) 07:13:14 436.795
Cubesat XI-IV 20 Jan 07:14:59 07:20:10 55° 287° (WNW) 07:25:22 437.490
NOAA 18 20 Jan 07:15:54 07:21:23 79° 104° (ESE) 07:26:50 137.9125
CUTE 1.7 + AOD 2 20 Jan 07:17:18 07:20:36 21° 95° (E) 07:23:52 437.475
PHONESAT 2.4 20 Jan 07:19:48 07:21:58 37° 207° (SSW) 07:24:07 2401.200-2431.200
NOAA 15 20 Jan 07:25:35 07:30:32 41° 289° (WNW) 07:35:27 137.62
CINEMA 3 20 Jan 07:26:17 07:30:24 51° 100° (E) 07:34:36 145.822/145.860
DOVE 4 20 Jan 07:33:00 07:36:24 25° 290° (WNW) 07:39:46 437.250
RS-15 20 Jan 07:40:19 07:51:23 36° 43° (NE) 08:02:03 29.354- 29.394
CANX-2 20 Jan 07:45:42 07:49:56 56° 100° (E) 07:54:08 2200.000
HO-68 20 Jan 07:51:16 07:58:18 56° 102° (ESE) 08:05:18 435.675
SEEDS 20 Jan 07:57:39 08:01:42 42° 99° (E) 08:05:43 437.485
O/OREOS (USA 219) 20 Jan 07:58:13 08:00:29 14° 302° (WNW) 08:02:45 437.305
Cosmos 2499 20 Jan 07:59:46 08:06:32 49° 269° (W) 08:13:16 435.465 / 435.565
COMPASS 1 20 Jan 08:03:56 08:07:42 31° 97° (E) 08:11:25 437.405
STRAND 1 20 Jan 08:12:27 08:16:01 19° 266° (W) 08:19:35 437.568
CUTE-I 20 Jan 08:13:28 08:16:37 16° 296° (WNW) 08:19:47 437.470
Oscar 11 20 Jan 08:15:22 08:16:43 11° 92° (E) 08:18:04 145.826/435.025
AAUSAT CUBESAT 2 20 Jan 08:15:34 08:19:19 32° 97° (E) 08:23:03 437.432
CUBEBUG 2 20 Jan 08:23:15 08:27:30 52° 100° (E) 08:31:53 437.445
PRISM 20 Jan 08:44:27 08:48:29 51° 74° (ENE) 08:52:32 437.425
SO-50 20 Jan 08:45:33 08:49:55 37° 305° (NW) 08:54:16 436.795
FUNcube-1 20 Jan 08:49:07 08:53:07 33° 98° (E) 08:57:09 145.935
UWE-3 20 Jan 08:52:16 08:56:39 70° 101° (ESE) 09:01:09 435.000/436.395/437.385
CUTE 1.7 + AOD 2 20 Jan 08:52:45 08:56:22 27° 289° (WNW) 08:59:58 437.475
GONETS M04 20 Jan 08:53:15 09:00:43 32° 275° (W) 09:08:10
NOAA 18 20 Jan 08:59:09 09:01:18 12° 299° (WNW) 09:03:27 137.9125
UNISAT 6 20 Jan 09:03:37 09:06:57 23° 70° (ENE) 09:10:17 437.425
CINEMA 3 20 Jan 09:05:44 09:07:06 11° 294° (WNW) 09:08:28 145.822/145.860
ZACube-1 20 Jan 09:11:43 09:16:07 69° 101° (E) 09:20:35 437.345
TIGRISAT 20 Jan 09:16:39 09:20:20 29° 71° (ENE) 09:24:01 435.000
CANX-2 20 Jan 09:24:00 09:25:15 11° 295° (WNW) 09:26:29 2200.000
PCSat 20 Jan 09:27:00 09:31:18 23° 53° (NE) 09:35:33 145.827
HUMSAT D 20 Jan 09:27:02 09:29:10 13° 93° (E) 09:31:16 437.325/437.525
ANTELSAT 20 Jan 09:31:21 09:35:25 47° 74° (ENE) 09:39:31 437.575/2403.000
SEEDS 20 Jan 09:34:44 09:36:59 14° 293° (WNW) 09:39:14 437.485
DELFI C3 20 Jan 09:35:14 09:38:47 30° 97° (E) 09:42:19 145.870
HO-68 20 Jan 09:39:55 09:45:31 26° 298° (WNW) 09:51:07 435.675
COMPASS 1 20 Jan 09:40:06 09:42:59 18° 291° (WNW) 09:45:49 437.405
Oscar 11 20 Jan 09:48:52 09:53:06 52° 285° (WNW) 09:57:19 145.826/435.025
AAUSAT CUBESAT 2 20 Jan 09:51:45 09:54:30 17° 292° (WNW) 09:57:15 437.432
RS-15 20 Jan 09:52:40 10:04:52 71° 246° (WSW) 10:16:30 29.354- 29.394
CUBEBUG 2 20 Jan 10:01:50 10:03:41 12° 293° (WNW) 10:05:32 437.445
PRISM 20 Jan 10:23:09 10:24:01 11° 268° (W) 10:24:52 437.425
FUNcube-1 20 Jan 10:25:59 10:29:05 19° 291° (WNW) 10:32:14 145.935
JAS-2 20 Jan 10:31:59 10:37:10 64° 73° (ENE) 10:42:49 435.910
QB50P1 20 Jan 10:34:18 10:37:28 21° 69° (ENE) 10:40:38 145.935-145.965
POLYITAN 1 20 Jan 10:38:11 10:41:32 24° 70° (ENE) 10:44:53 437.675
QB50P2 20 Jan 10:39:15 10:42:44 26° 71° (ENE) 10:46:15 145.880/145.840
UNISAT 6 20 Jan 10:40:01 10:43:32 25° 264° (W) 10:47:02 437.425
TIGRISAT 20 Jan 10:54:00 10:57:01 19° 265° (W) 11:00:02 435.000
POPSAT HIP 1 20 Jan 11:00:17 11:04:14 42° 73° (ENE) 11:08:12 437.405
HUMSAT D 20 Jan 11:00:51 11:04:55 43° 286° (WNW) 11:08:59 437.325/437.525
BY70-1 20 Jan 11:02:30 11:05:34 37° 98° (E) 11:08:26 436.1900
PCSat 20 Jan 11:09:43 11:14:52 45° 249° (WSW) 11:19:59 145.827
DELFI C3 20 Jan 11:10:47 11:13:19 16° 291° (WNW) 11:15:49 145.870
ANTELSAT 20 Jan 11:10:54 11:12:22 12° 268° (W) 11:13:51 437.575/2403.000
DUCHIFAT 1 20 Jan 11:11:16 11:15:16 48° 74° (ENE) 11:19:18 145.980
CUBEBUG 1 20 Jan 11:14:10 11:16:39 15° 93° (E) 11:19:08 437.445
NANOSAT C BR1 20 Jan 11:16:35 11:20:43 64° 75° (ENE) 11:24:51 145.865
AISAT 20 Jan 11:30:11 11:32:35 14° 93° (E) 11:34:59 437.250
50 SAT 20 Jan 11:45:22 11:46:54 12° 93° (E) 11:48:26 437.505
BUGSAT 1 20 Jan 11:46:44 11:50:35 42° 74° (ENE) 11:54:25 437.445
ESTCUBE 1 20 Jan 11:49:55 11:54:28 75° 102° (ESE) 11:58:58 437.505/2401.250
VELOX 1 20 Jan 12:02:16 12:06:14 32° 98° (E) 12:10:10 145.980
QB50P1 20 Jan 12:09:32 12:13:04 26° 263° (W) 12:16:36 145.935-145.965
RS-15 20 Jan 12:10:26 12:14:56 13° 265° (W) 12:19:23 29.354- 29.394
POLYITAN 1 20 Jan 12:13:51 12:17:12 23° 264° (W) 12:20:34 437.675
QB50P2 20 Jan 12:15:17 12:18:28 21° 265° (W) 12:21:41 145.880/145.840
JAS-2 20 Jan 12:20:47 12:22:55 12° 271° (W) 12:25:07 435.910
SPROUT 20 Jan 12:31:49 12:36:00 54° 100° (E) 12:40:09 437.525
UKube-1 20 Jan 12:34:32 12:38:04 24° 97° (E) 12:41:35 .
DX 1 20 Jan 12:34:49 12:38:48 35° 99° (E) 12:42:44 434.975-435.025
POPSAT HIP 1 20 Jan 12:38:15 12:40:11 13° 267° (W) 12:42:06 437.405
Oscar 19 20 Jan 12:38:44 12:43:38 44° 72° (ENE) 12:48:33 437.125/150
CUBEBUG 1 20 Jan 12:49:03 12:53:04 38° 287° (WNW) 12:57:02 437.445
AO-85 20 Jan 12:50:00 12:52:56 16° 110° (ESE) 12:55:44 145.980
DUCHIFAT 1 20 Jan 12:50:05 12:51:11 11° 268° (W) 12:52:17 145.980
Gurwin Techsat 1B 20 Jan 12:52:18 12:56:55 31° 69° (ENE) 13:01:33 435.225
AISAT 20 Jan 13:05:05 13:09:12 41° 287° (WNW) 13:13:17 437.250
Cosmos 2491 20 Jan 13:07:15 13:15:42 49° 78° (ENE) 13:24:07 435.465 / 435.565
AO-7 20 Jan 13:08:20 13:12:15 14° 51° (NE) 13:16:11 29.400- 29.500
YUBILEINY 20 Jan 13:11:46 13:18:10 23° 82° (E) 13:24:33 435.215
50 SAT 20 Jan 13:17:02 13:20:10 30° 287° (WNW) 13:23:17 437.505
BUGSAT 1 20 Jan 13:24:33 13:26:07 12° 267° (W) 13:27:40 437.445
ITAMSAT 1 20 Jan 13:25:03 13:26:46 12° 62° (ENE) 13:28:30 435.822/435.867
CUSAT 1 20 Jan 13:39:00 13:46:07 34° 72° (ENE) 13:52:39 437.405
VELOX 1 20 Jan 13:39:20 13:42:25 19° 292° (WNW) 13:45:29 145.980
JUGNU 20 Jan 13:55:21 13:57:51 13° 169° (SSE) 14:00:22 437.505
TISAT 1 20 Jan 14:00:00 14:04:11 76° 102° (ESE) 14:08:21 437.305
ITUPSAT 1 20 Jan 14:05:22 14:08:01 15° 93° (E) 14:10:39 437.325
SPROUT 20 Jan 14:10:09 14:11:24 11° 295° (WNW) 14:12:39 437.525
UKube-1 20 Jan 14:10:31 14:13:58 24° 291° (WNW) 14:17:24 .
DX 1 20 Jan 14:11:49 14:14:41 17° 293° (WNW) 14:17:31 434.975-435.025
Oscar 19 20 Jan 14:19:28 14:23:06 19° 266° (W) 14:26:44 437.125/150
Cosmos 2504 20 Jan 14:26:10 14:34:05 40° 88° (E) 14:41:37 435.465 / 435.565
DANDE 20 Jan 14:27:28 14:34:22 31° 73° (ENE) 14:41:33 436.750
AO-85 20 Jan 14:28:25 14:33:02 47° 302° (WNW) 14:37:20 145.980
AIST 1 20 Jan 14:29:27 14:33:46 59° 278° (W) 14:38:05
Gurwin Techsat 1B 20 Jan 14:32:17 14:36:47 28° 264° (W) 14:41:19 435.225
BEESAT 20 Jan 14:38:35 14:42:58 35° 98° (E) 14:47:19 436.000
SWISSCUBE 20 Jan 14:40:07 14:44:39 41° 99° (E) 14:49:09 437.505
AO-7 20 Jan 14:55:16 15:03:34 72° 70° (ENE) 15:11:54 29.400- 29.500
ITAMSAT 1 20 Jan 15:00:22 15:05:32 77° 257° (WSW) 15:10:43 435.822/435.867
Cosmos 2491 20 Jan 15:04:41 15:12:07 32° 275° (W) 15:19:34 435.465 / 435.565
YUBILEINY 20 Jan 15:05:22 15:14:06 66° 279° (W) 15:22:54 435.215
CUSAT 1 20 Jan 15:20:39 15:28:08 46° 270° (W) 15:34:56 437.405
ITUPSAT 1 20 Jan 15:41:26 15:46:04 49° 287° (WNW) 15:50:41 437.325
JUGNU 20 Jan 15:42:24 15:46:06 17° 179° (S) 15:49:48 437.505
BEESAT 3 20 Jan 15:42:58 15:46:14 27° 112° (ESE) 15:49:34 437.485
M-CUBED/EXP-1 PRIME 20 Jan 16:02:27 16:04:58 20° 101° (E) 16:07:25 437.505
DANDE 20 Jan 16:09:33 16:17:17 55° 267° (W) 16:25:19 436.750
STARS 20 Jan 16:09:40 16:11:05 11° 92° (E) 16:12:29 437.465
MOZHAYETS 4 20 Jan 16:11:02 16:15:42 76° 284° (WNW) 16:20:20
BRITE-PL 20 Jan 16:13:13 16:18:38 48° 73° (ENE) 16:24:02 437.365/2234.400
BEESAT 20 Jan 16:16:54 16:20:29 21° 292° (WNW) 16:24:03 436.000
GOMX 1 20 Jan 16:18:40 16:22:39 22° 68° (ENE) 16:26:33 467.674
SWISSCUBE 20 Jan 16:18:49 16:22:05 18° 294° (WNW) 16:25:20 437.505
Cosmos 2504 20 Jan 16:19:21 16:27:21 39° 283° (WNW) 16:35:00 435.465 / 435.565
BEESAT 2 20 Jan 16:27:27 16:31:03 36° 114° (ESE) 16:34:42 435.950
O/OREOS (USA 219) 20 Jan 16:29:15 16:33:42 59° 68° (ENE) 16:38:10 437.305
AUBIESAT-1 20 Jan 16:38:27 16:41:42 52° 105° (ESE) 16:44:54 437.475
KKS-1 20 Jan 16:50:22 16:54:48 87° 98° (E) 16:59:13 437.445
AO-7 20 Jan 16:50:57 16:56:53 21° 266° (W) 17:02:53 29.400- 29.500
HORYU 2 20 Jan 16:55:01 16:59:18 53° 74° (ENE) 17:03:36 437.375
Cubesat XI-IV 20 Jan 16:55:39 16:59:29 21° 66° (ENE) 17:03:18 437.490
CUBESAT XI-V 20 Jan 16:57:00 17:01:32 47° 99° (E) 17:06:00 437.345
DOVE 4 20 Jan 16:57:55 17:01:25 19° 69° (ENE) 17:04:48 437.250
NOAA 18 20 Jan 17:02:10 17:04:44 13° 62° (ENE) 17:07:17 137.9125
NOAA 15 20 Jan 17:03:44 17:08:03 26° 67° (ENE) 17:12:22 137.62
YUBILEINY 20 Jan 17:11:42 17:12:42 10° 299° (WNW) 17:13:41 435.215
SRMSAT 20 Jan 17:12:06 17:15:34 16° 173° (S) 17:19:02 437.500
SO-50 20 Jan 17:19:21 17:23:52 84° 64° (ENE) 17:28:19 436.795
BEESAT 3 20 Jan 17:20:48 17:23:49 21° 308° (NW) 17:26:51 437.485
JUGNU 20 Jan 17:31:15 17:34:21 14° 189° (S) 17:37:28 437.505
M-CUBED/EXP-1 PRIME 20 Jan 17:37:12 17:39:19 16° 296° (WNW) 17:41:23 437.505
LilacSat-2 20 Jan 17:37:41 17:41:20 51° 75° (ENE) 17:45:01 437.200
STARS 20 Jan 17:43:26 17:47:41 51° 286° (WNW) 17:51:55 437.465
CUTE-I 20 Jan 17:50:36 17:55:52 71° 75° (ENE) 18:01:09 437.470
BRITE-PL 20 Jan 17:53:01 17:57:13 21° 267° (W) 18:01:27 437.365/2234.400
GOMX 1 20 Jan 17:55:15 18:00:24 43° 261° (W) 18:05:24 467.674
BEESAT 2 20 Jan 18:06:18 18:08:57 17° 310° (NW) 18:11:37 435.950
CUTE 1.7 + AOD 2 20 Jan 18:09:12 18:10:16 11° 65° (ENE) 18:11:21 437.475
O/OREOS (USA 219) 20 Jan 18:11:55 18:12:31 10° 262° (W) 18:13:06 437.305
HO-68 20 Jan 18:17:06 18:23:12 31° 64° (ENE) 18:29:20 435.675
CINEMA 3 20 Jan 18:25:04 18:29:03 33° 73° (ENE) 18:32:54 145.822/145.860
AIST 2 20 Jan 18:28:23 18:30:14 13° 108° (ESE) 18:32:04 435.215
DOVE 4 20 Jan 18:34:03 18:38:49 41° 261° (W) 18:43:22 437.250
Cubesat XI-IV 20 Jan 18:34:08 18:39:11 44° 260° (W) 18:44:16 437.490
HORYU 2 20 Jan 18:34:47 18:36:07 11° 268° (W) 18:37:27 437.375
CANX-2 20 Jan 18:35:41 18:39:14 27° 71° (ENE) 18:42:49 2200.000
CUBESAT XI-V 20 Jan 18:35:44 18:38:28 15° 294° (WNW) 18:41:10 437.345
NOAA 18 20 Jan 18:39:12 18:44:42 74° 257° (WSW) 18:50:12 137.9125
Cosmos 2499 20 Jan 18:40:28 18:46:51 24° 85° (E) 18:52:55 435.465 / 435.565
NOAA 15 20 Jan 18:42:52 18:47:37 34° 262° (W) 18:52:25 137.62
STRAND 1 20 Jan 18:46:19 18:49:50 18° 94° (E) 18:53:19 437.568
SEEDS 20 Jan 18:46:56 18:50:01 20° 69° (ENE) 18:53:07 437.485
COMPASS 1 20 Jan 18:52:45 18:55:09 15° 67° (ENE) 18:57:33 437.405
SRMSAT 20 Jan 19:00:15 19:04:00 17° 183° (S) 19:07:46 437.500
AAUSAT CUBESAT 2 20 Jan 19:03:49 19:06:14 15° 68° (ENE) 19:08:40 437.432
CUBEBUG 2 20 Jan 19:18:54 19:22:27 28° 72° (ENE) 19:25:59 437.445
CUTE-I 20 Jan 19:34:35 19:36:21 12° 269° (W) 19:38:08 437.470
CUTE 1.7 + AOD 2 20 Jan 19:41:24 19:45:34 56° 260° (W) 19:49:46 437.475
FUNcube-1 20 Jan 19:42:48 19:45:28 17° 68° (ENE) 19:48:09 145.935
UWE-3 20 Jan 19:46:34 19:50:22 35° 73° (ENE) 19:54:09 435.000/436.395/437.385
GONETS M04 20 Jan 19:52:38 20:01:09 63° 91° (E) 20:09:44
CINEMA 3 20 Jan 20:03:09 20:06:12 18° 265° (W) 20:09:11 145.822/145.860
HO-68 20 Jan 20:03:48 20:10:38 46° 260° (W) 20:17:29 435.675
AIST 2 20 Jan 20:04:17 20:08:14 46° 303° (WNW) 20:12:15 435.215
ZACube-1 20 Jan 20:04:50 20:08:33 34° 72° (ENE) 20:12:17 437.345
CANX-2 20 Jan 20:11:48 20:15:02 21° 265° (W) 20:18:18 2200.000
DELFI C3 20 Jan 20:19:26 20:21:13 13° 67° (ENE) 20:22:59 145.870
SEEDS 20 Jan 20:21:51 20:25:29 28° 264° (W) 20:29:10 437.485
STRAND 1 20 Jan 20:24:17 20:29:10 44° 288° (WNW) 20:34:01 437.568
COMPASS 1 20 Jan 20:26:26 20:30:19 38° 262° (W) 20:34:16 437.405
Cosmos 2499 20 Jan 20:31:02 20:39:25 60° 279° (W) 20:47:15 435.465 / 435.565
AAUSAT CUBESAT 2 20 Jan 20:37:29 20:41:20 37° 262° (W) 20:45:15 437.432
Oscar 11 20 Jan 20:40:02 20:44:20 79° 77° (ENE) 20:48:41 145.826/435.025
SRMSAT 20 Jan 20:50:19 20:52:25 12° 193° (SSW) 20:54:30 437.500
CUBEBUG 2 20 Jan 20:56:05 20:59:04 19° 265° (W) 21:02:02 437.445
FUNcube-1 20 Jan 21:17:45 21:21:26 31° 263° (W) 21:25:09 145.935
UWE-3 20 Jan 21:24:38 21:26:55 14° 267° (W) 21:29:13 435.000/436.395/437.385
ANTELSAT 20 Jan 21:27:17 21:29:23 13° 93° (E) 21:31:29 437.575/2403.000
ISS 20 Jan 21:41:45 21:44:54 50° 135° (SE) 21:48:04 145.825
ZACube-1 20 Jan 21:42:28 21:44:55 15° 267° (W) 21:47:23 437.345
JAS-2 20 Jan 21:45:51 21:48:47 12° 89° (E) 21:51:46 435.910
HUMSAT D 20 Jan 21:48:27 21:52:33 85° 76° (ENE) 21:56:41 437.325/437.525
GONETS M04 20 Jan 21:51:41 21:58:29 25° 290° (WNW) 22:05:22
DELFI C3 20 Jan 21:51:48 21:55:36 41° 261° (W) 21:59:26 145.870
RS-15 20 Jan 22:02:09 22:10:51 25° 101° (E) 22:19:46 29.354- 29.394
PRISM 20 Jan 22:03:50 22:07:53 61° 285° (WNW) 22:11:54 437.425
UNISAT 6 20 Jan 22:33:14 22:37:42 80° 102° (ESE) 22:42:16 437.425
BY70-1 20 Jan 22:43:41 22:46:36 82° 258° (WSW) 22:49:46 436.1900
ESTCUBE 1 20 Jan 22:46:12 22:50:31 46° 73° (ENE) 22:54:52 437.505/2401.250
TIGRISAT 20 Jan 22:46:29 22:50:57 78° 282° (WNW) 22:55:29 435.000
VELOX 1 20 Jan 22:57:00 23:00:20 21° 68° (ENE) 23:03:40 145.980
ANTELSAT 20 Jan 23:01:58 23:06:16 48° 286° (WNW) 23:10:38 437.575/2403.000
AO-85 20 Jan 23:02:38 23:06:29 55° 59° (ENE) 23:10:20 145.980
NANOSAT C BR1 20 Jan 23:05:40 23:07:31 13° 93° (E) 23:09:22 145.865
ISS 20 Jan 23:19:21 23:21:35 17° 330° (NNW) 23:23:49 145.825
SPROUT 20 Jan 23:22:27 23:26:04 28° 71° (ENE) 23:29:42 437.525
UKube-1 20 Jan 23:27:04 23:29:32 15° 66° (ENE) 23:32:02 .
JAS-2 20 Jan 23:27:04 23:34:26 80° 103° (ESE) 23:42:16 435.910
DX 1 20 Jan 23:27:47 23:31:07 22° 69° (ENE) 23:34:28 434.975-435.025
CUBEBUG 1 20 Jan 23:41:10 23:45:35 71° 259° (WSW) 23:49:59 437.445
50 SAT 20 Jan 23:47:58 23:51:28 58° 75° (ENE) 23:55:00 437.505
QB50P1 20 Jan 23:56:14 00:00:25 59° 100° (E) 00:04:35 145.935-145.965
AISAT 20 Jan 23:58:40 00:03:06 70° 258° (WSW) 00:07:32 437.250
POLYITAN 1 21 Jan 00:00:30 00:04:44 68° 102° (ESE) 00:08:56 437.675
QB50P2 21 Jan 00:01:46 00:06:00 76° 102° (ESE) 00:10:14 145.880/145.840
PCSat 21 Jan 00:05:12 00:10:05 36° 109° (ESE) 00:14:59 145.827
RS-15 21 Jan 00:10:03 00:21:50 80° 299° (WNW) 00:34:15 29.354- 29.394
POPSAT HIP 1 21 Jan 00:23:13 00:27:24 65° 284° (WNW) 00:31:35 437.405
ESTCUBE 1 21 Jan 00:25:10 00:27:30 14° 267° (W) 00:29:52 437.505/2401.250
VELOX 1 21 Jan 00:32:39 00:36:34 30° 262° (W) 00:40:29 145.980
DUCHIFAT 1 21 Jan 00:33:30 00:37:38 57° 285° (WNW) 00:41:45 145.980
NANOSAT C BR1 21 Jan 00:39:25 00:43:24 43° 286° (WNW) 00:47:24 145.865
AIST 1 21 Jan 00:40:06 00:43:32 23° 76° (ENE) 00:46:56
TISAT 1 21 Jan 00:48:33 00:52:22 36° 72° (ENE) 00:56:12 437.305
BEESAT 2 21 Jan 00:49:55 00:50:55 11° 46° (NE) 00:51:53 435.950
Oscar 19 21 Jan 00:54:13 00:57:53 19° 94° (E) 01:01:31 437.125/150
PHONESAT 2.4 21 Jan 00:56:48 00:58:41 23° 150° (SSE) 01:00:35 2401.200-2431.200
SPROUT 21 Jan 00:58:47 01:01:57 20° 265° (W) 01:05:07 437.525
UKube-1 21 Jan 01:01:07 01:05:12 41° 261° (W) 01:09:18 .
DX 1 21 Jan 01:03:21 01:07:07 28° 263° (W) 01:10:54 434.975-435.025
BUGSAT 1 21 Jan 01:06:12 01:10:13 69° 285° (WNW) 01:14:16 437.445
ITUPSAT 1 21 Jan 01:10:08 01:12:15 13° 64° (ENE) 01:14:21 437.325
Gurwin Techsat 1B 21 Jan 01:12:35 01:15:37 15° 93° (E) 01:18:39 435.225
JAS-2 21 Jan 01:13:52 01:18:42 19° 297° (WNW) 01:23:46 435.910
YUBILEINY 21 Jan 01:19:26 01:28:03 55° 79° (E) 01:36:34 435.215
QB50P1 21 Jan 01:35:05 01:35:38 10° 295° (WNW) 01:36:12 145.935-145.965
BEESAT 3 21 Jan 01:39:13 01:43:14 84° 61° (ENE) 01:47:12 437.485
BEESAT 21 Jan 01:42:11 01:46:15 29° 70° (ENE) 01:50:19 436.000
SWISSCUBE 21 Jan 01:43:39 01:47:54 34° 71° (ENE) 01:52:10 437.505
PCSat 21 Jan 01:48:52 01:53:29 28° 305° (NW) 01:58:07 145.827
Cosmos 2491 21 Jan 02:04:13 02:12:44 62° 91° (E) 02:21:16 435.465 / 435.565
Cosmos 2504 21 Jan 02:15:22 02:22:40 64° 81° (E) 02:29:44 435.465 / 435.565
AIST 1 21 Jan 02:17:41 02:20:58 22° 271° (W) 02:24:14
BEESAT 2 21 Jan 02:25:07 02:29:09 71° 242° (WSW) 02:33:09 435.950
TISAT 1 21 Jan 02:25:41 02:28:06 15° 266° (W) 02:30:30 437.305
RS-15 21 Jan 02:27:07 02:36:38 26° 326° (NW) 02:46:24 29.354- 29.394
PHONESAT 2.4 21 Jan 02:30:27 02:32:38 40° 344° (NNW) 02:34:50 2401.200-2431.200
Oscar 19 21 Jan 02:32:29 02:37:20 42° 289° (WNW) 02:42:09 437.125/150
CUSAT 1 21 Jan 02:37:07 02:41:19 28° 85° (E) 02:46:27 437.405
ITUPSAT 1 21 Jan 02:44:50 02:49:31 60° 259° (W) 02:54:15 437.325
M-CUBED/EXP-1 PRIME 21 Jan 02:45:02 02:48:26 22° 66° (ENE) 02:51:41 437.505
Gurwin Techsat 1B 21 Jan 02:50:40 02:55:51 56° 287° (WNW) 03:01:02 435.225
AO-7 21 Jan 03:01:16 03:08:10 28° 97° (E) 03:14:59 29.400- 29.500
MOZHAYETS 4 21 Jan 03:09:32 03:14:04 71° 75° (ENE) 03:18:39
ITAMSAT 1 21 Jan 03:16:18 03:21:20 48° 100° (E) 03:26:22 435.822/435.867
YUBILEINY 21 Jan 03:17:10 03:24:15 28° 276° (W) 03:31:18 435.215
BEESAT 21 Jan 03:20:06 03:23:57 25° 264° (W) 03:27:51 436.000
AUBIESAT-1 21 Jan 03:20:25 03:24:32 44° 70° (ENE) 03:28:25 437.475
SWISSCUBE 21 Jan 03:22:09 03:25:42 21° 265° (W) 03:29:17 437.505
DANDE 21 Jan 03:34:35 03:37:17 19° 83° (E) 03:40:29 436.750
KKS-1 21 Jan 03:45:08 03:49:28 54° 74° (ENE) 03:53:48 437.445
CUBESAT XI-V 21 Jan 03:57:15 04:01:24 32° 71° (ENE) 04:05:36 437.345
Cosmos 2491 21 Jan 04:03:17 04:10:04 25° 290° (WNW) 04:16:57 435.465 / 435.565
PHONESAT 2.4 21 Jan 04:05:07 04:06:59 21° 0° (N) 04:08:51 2401.200-2431.200
ISS 21 Jan 04:12:28 04:14:52 19° 31° (NNE) 04:17:16 145.825
